User: anonymous   Login
Location: Bonneuil
(46.1010°N, 2.9693°E)
Time: 20:53:25
(UTC+00:00)
Language:

NOSS 3-4 (A) - Orbit

View from above orbital plane
View from above orbital plane
View from above satellite
View from above satellite

Ground track
Ground track

The orbit data is extracted from the following two-line orbital elements,

1 31701U 07027A   20184.91853435 0.00000000  00000-0  00000-0 0    04
2 31701  63.3934 127.5898 0285461  20.1290 339.8710 13.40804669    04
Epoch (UTC): 02 July 2020 22:02:41
Eccentricity: 0.0285461
inclination: 63.3934°
perigee height: 892 km
apogee height: 1320 km
right ascension of ascending node: 127.5898°
argument of perigee: 20.1290°
revolutions per day: 13.40804669
mean anomaly at epoch: 339.8710°
orbit number at epoch: 0

The dashed part of the orbit path shows where the satellite is in the earth's shadow,  

DLR